Home   Weather   Antwerp   Past weeks

Flag for Belgium Past Weather in Antwerp, Belgium — Yesterday and Last 2 Weeks

Now
64 °F

Broken clouds.


Feels Like: 64 °F
Forecast: 53 / 64 °F
Wind: 13 mph from Southwest

Location: Antwerp / Deurne

Current Time: Sep 29, 2016 at 7:07:42 PM

Latest Report: Sep 29, 2016 at 6:20 PM


Visibility: N/A

Pressure: 29.95 "Hg

Humidity: 73%

Dew Point: 55 °F

Location of AntwerpLocation

Past Weather in Antwerp — Graph

°F

Antwerp Temperature Yesterday

Maximum temperature yesterday: 73 °F (at 3:50 PM)
Minimum temperature yesterday: 61 °F (at 4:20 AM)
Average temperature yesterday: 66 °F

High & Low Weather Summary for the Past Weeks

 TemperatureHumidityPressure
High86 °F (Sep 14, 5:20 PM)94% (Sep 16, 3:20 AM)30.30 "Hg (Sep 16, 3:20 AM)
Low43 °F (Sep 27, 5:20 AM)34% (Sep 24, 3:20 PM)29.80 "Hg (Sep 15, 4:50 AM)
Average62 °F70%30.10 "Hg
* Reported Sep 14 5:20 PM — Sep 29 5:50 PM, Antwerp, Weather by CustomWeather, © 2016

Note: Actual official high and low records may vary slightly from our data, if they occured in-between our weather recording intervals... More about our weather records

Advertising

Antwerp Weather History for the Previous 24 Hours

Scroll right to see more
 ConditionsComfort  
Time TempWeatherWind HumidityBarometerVisibility
5:50 PM
Thu, Sep 29
64 °FPartly sunny.13 mph73%29.95 "HgN/A
5:20 PM64 °FPartly sunny.13 mph73%29.95 "HgN/A
4:50 PM66 °FPartly sunny.15 mph68%29.95 "HgN/A
4:20 PM64 °FPartly sunny.13 mph73%29.98 "HgN/A
3:50 PM64 °FPartly sunny.14 mph73%29.98 "HgN/A
3:20 PM64 °FPartly sunny.14 mph73%29.98 "HgN/A
2:50 PM64 °FPartly sunny.13 mph73%29.98 "HgN/A
2:20 PM64 °FPartly sunny.14 mph73%29.98 "HgN/A
1:50 PM64 °FPartly sunny.14 mph73%30.01 "HgN/A
1:20 PM64 °FPartly sunny.15 mph68%30.01 "HgN/A
12:50 PM64 °FPartly sunny.15 mph68%30.01 "HgN/A
12:20 PM64 °FPartly sunny.17 mph68%30.04 "HgN/A
11:50 AM64 °FBroken clouds.16 mph68%30.04 "HgN/A
11:20 AM63 °FPartly sunny.13 mph73%30.04 "HgN/A
10:50 AM63 °FBroken clouds.14 mph73%30.04 "HgN/A
10:20 AM63 °FScattered clouds.15 mph73%30.04 "HgN/A
9:50 AM61 °FPartly sunny.13 mph77%30.07 "HgN/A
9:20 AM61 °FPartly sunny.13 mph83%30.07 "HgN/A
8:50 AM61 °FPartly sunny.12 mph77%30.07 "HgN/A
8:20 AM59 °FPartly sunny.14 mph82%30.07 "HgN/A
7:50 AM59 °FPartly sunny.10 mph82%30.07 "HgN/A
7:20 AM59 °FClear.10 mph82%30.07 "Hg10 mi
6:50 AM59 °FClear.9 mph82%30.07 "Hg10 mi
6:20 AM59 °FClear.8 mph82%30.09 "Hg10 mi
5:50 AM59 °FClear.8 mph82%30.09 "Hg10 mi
5:20 AM59 °FClear.7 mph77%30.09 "Hg10 mi
4:50 AM59 °FClear.9 mph82%30.12 "Hg10 mi
4:20 AM59 °FClear.9 mph82%30.12 "Hg10 mi
3:50 AM61 °FClear.12 mph77%30.15 "Hg6 mi
3:20 AM61 °FClear.12 mph83%30.15 "Hg10 mi
2:50 AM61 °FClear.10 mph77%30.15 "Hg10 mi
2:20 AM61 °FClear.10 mph77%30.18 "Hg10 mi
1:50 AM63 °FClear.8 mph73%30.18 "Hg10 mi
1:20 AM63 °FClear.10 mph73%30.18 "Hg10 mi
12:50 AM64 °FClear.9 mph68%30.18 "Hg10 mi
12:20 AM64 °FClear.8 mph68%30.18 "Hg10 mi
11:50 PM
Wed, Sep 28
64 °FClear.10 mph68%30.18 "Hg10 mi
11:20 PM66 °FClear.8 mph64%30.21 "Hg10 mi
10:50 PM66 °FClear.9 mph64%30.21 "Hg10 mi
10:20 PM66 °FClear.8 mph60%30.21 "Hg10 mi
9:50 PM68 °FClear.9 mph56%30.21 "Hg10 mi
9:20 PM68 °FPassing clouds.8 mph56%30.21 "HgN/A
8:50 PM68 °FPassing clouds.8 mph56%30.21 "HgN/A
8:20 PM70 °FClear.12 mph53%30.24 "Hg10 mi
7:50 PM70 °FPassing clouds.12 mph53%30.24 "HgN/A
7:20 PM70 °FPassing clouds.9 mph53%30.24 "HgN/A
Weather by CustomWeather, © 2016

See weather overviewHow to use our weather pages